[[{"header":{"parameterUnit":"m.s-1","parameterCategory":1,"la1":30.2991,"la2":30.254,"lo1":-89.0895,"lo2":-89.0444,"dy":0.0017,"dx":0.0017,"nx":28,"ny":28,"refTime":"2023-10-28T21:00:00:Z","depth":0,"parameterNumber":2,"parameterNumberName":"U-component_of_WINDS"},"data":[0,0,0,0,0,0,0,0,0,0,0,0,0,0,0,0,0,0,0,0,0,0,0,0,0,0,0,0,0,0,0,0,0,0,0,0,0,0,0,0,0,0,0,0,0,0,0,0,0,0,0,0,0,0,0,0,0,0,0.4699,0.4699,0,0.4721,0.4721,0.4722,0.4762,0.4763,0.4764,0.4764,0.4788,0.4788,0.4788,0,0,0,0,0,0,0,0,0,0,0,0,0,0.4694,0.4694,0.4699,0.4699,0.4699,0.4721,0.4721,0.4722,0.4762,0.4763,0.4764,0.4765,0.4788,0.4788,0.4788,0,0,0,0,0,0,0,0,0,0,0,0,0,0.4704,0.4694,0.4699,0.4722,0.4724,0.4721,0.4721,0.4722,0.4762,0.4763,0.4764,0.4765,0.4788,0.4788,0.4788,0.4763,0,0,0.4787,0.4787,0,0,0,0,0,0,0,0,0.4704,0.4704,0.4718,0.472,0.4723,0.474,0.4728,0.4736,0.4761,0.4747,0.4764,0.4766,0.4771,0.4772,0.4774,0.4765,0.4766,0.4787,0.4787,0.4787,0.4787,0,0,0,0,0,0,0,0.4703,0.4704,0.4708,0.4718,0.4721,0.4732,0.4735,0.473,0.4752,0.4749,0.4752,0.4754,0.4772,0.4774,0.4775,0.4766,0.4787,0.4787,0.4787,0.4787,0.4742,0.4741,0,0,0,0,0,0,0.4699,0.4703,0.4707,0.4708,0.4716,0.4732,0.4735,0.4733,0.4753,0.4757,0.4753,0.4756,0.4774,0.4775,0.4776,0.4751,0.4787,0.4787,0.4787,0.4743,0.4742,0.474,0,0,0,0,0,0,0.4698,0.4698,0.4706,0.4706,0.4708,0.473,0.4729,0.4733,0.4735,0.4756,0.476,0.475,0.4775,0.4776,0.4767,0.4752,0.4787,0.4787,0.4744,0.4743,0.4741,0.4699,0,0,0,0,0,0,0.4698,0.4698,0.4688,0.4706,0.4708,0.4695,0.4728,0.4733,0.4734,0.4738,0.4754,0.4758,0.4776,0.4767,0.4767,0.4752,0.4786,0.4746,0.4743,0.4742,0.4702,0.4696,0.4691,0,0,0,0,0,0.4698,0.4675,0.4687,0.4687,0.4696,0.4694,0.4696,0.4716,0.4733,0.4724,0.4738,0.4757,0.4754,0.4766,0.4766,0.4751,0.4747,0.4744,0.4742,0.4704,0.4697,0.4691,0,0,0,0,0,0,0.4653,0.4677,0.4691,0.4673,0.4682,0.4701,0.469,0.4708,0.4712,0.4715,0.4741,0.4744,0.4733,0.4741,0.4754,0.4731,0.4754,0.4751,0.4725,0.4719,0.4714,0.4711,0.4786,0,0,0,0,0,0.4642,0.4638,0.4659,0.4642,0.4645,0.4667,0.4667,0.4683,0.4692,0.4696,0.4709,0.4718,0.472,0.472,0.4722,0.4704,0.4709,0.4695,0.4689,0.4685,0.4682,0.4676,0.467,0.4732,0.4732,0.4732,0,0,0.4617,0.463,0.4626,0.4633,0.4641,0.4638,0.4669,0.4664,0.4662,0.4695,0.4688,0.4698,0.4711,0.4698,0.4693,0.4705,0.4666,0.4682,0.4678,0.4678,0.4673,0.4667,0.4661,0.4731,0.4731,0.4731,0,0,0.4571,0.4579,0.4567,0.4575,0.4588,0.4603,0.46,0.4618,0.4627,0.462,0.4645,0.4645,0.4646,0.4654,0.4659,0.462,0.4639,0.4621,0.4592,0.4586,0.4581,0.4577,0.4565,0.456,0.4618,0.4618,0.4618,0,0.4539,0.4534,0.4558,0.4552,0.4555,0.4587,0.4575,0.4582,0.4595,0.4597,0.4611,0.4615,0.4625,0.4616,0.4607,0.4609,0.4608,0.4618,0.458,0.4576,0.4572,0.4561,0.4556,0.4616,0.4616,0.4616,0.4616,0,0.4495,0.4492,0.448,0.4493,0.4495,0.4486,0.451,0.451,0.4527,0.4541,0.4536,0.455,0.4557,0.4556,0.4572,0.455,0.4557,0.4575,0.4598,0.4564,0.4553,0.4549,0.4612,0.4613,0.4614,0.4614,0,0,0.4418,0.4447,0.4442,0.4449,0.4468,0.4466,0.446,0.4468,0.4468,0.4477,0.4473,0.4476,0.4493,0.4499,0.4516,0.451,0.4482,0.4529,0.453,0.452,0.4461,0.4447,0.4441,0.4495,0.4494,0.4494,0.446,0,0.4376,0.4366,0.4389,0.4374,0.4373,0.4405,0.44,0.4412,0.4426,0.4429,0.4445,0.4447,0.4469,0.4473,0.4469,0.4486,0.447,0.4489,0.4493,0.4493,0.4488,0.4436,0.442,0.4388,0.4456,0.4455,0.4455,0,0.4324,0.4331,0.4316,0.4339,0.4339,0.4334,0.4345,0.4346,0.4361,0.4373,0.438,0.4401,0.4399,0.4423,0.4421,0.4433,0.4437,0.4446,0.4445,0.4446,0.4471,0.4435,0.4378,0.4373,0.4449,0.4449,0.445,0,0.427,0.4277,0.427,0.4275,0.43,0.4297,0.4307,0.4324,0.4328,0.4338,0.4341,0.435,0.4355,0.4363,0.4387,0.4401,0.4383,0.4408,0.4393,0.4392,0.4386,0.4386,0.4329,0.4389,0.4389,0.4389,0.4389,0,0.422,0.421,0.4247,0.4242,0.4233,0.4261,0.4251,0.4265,0.428,0.428,0.4309,0.4309,0.4341,0.4344,0.4363,0.436,0.4362,0.4372,0.4377,0.4369,0.4368,0.4371,0.4374,0.4388,0.4388,0.4389,0.4389,0,0.4158,0.4182,0.4176,0.4202,0.4208,0.42,0.4223,0.4221,0.4239,0.4239,0.4241,0.4269,0.4275,0.43,0.4312,0.4326,0.4316,0.4326,0.4311,0.4314,0.4298,0.4299,0.424,0.4234,0.4298,0.4298,0.4297,0,0.4123,0.4117,0.4143,0.4145,0.4155,0.4158,0.4163,0.4192,0.4196,0.4215,0.4211,0.422,0.4228,0.4237,0.4259,0.427,0.428,0.4259,0.4282,0.4275,0.4281,0.4281,0.4281,0.4254,0.4253,0.4252,0.4252,0,0.4061,0.4074,0.408,0.4091,0.4096,0.4106,0.4118,0.4118,0.4151,0.4155,0.4162,0.4169,0.4183,0.4192,0.4207,0.4219,0.4241,0.4245,0.4242,0.4233,0.4225,0.423,0.4297,0.4245,0.4246,0.4247,0.4247,0.4247,0.4012,0.4009,0.4027,0.4034,0.4046,0.4057,0.4057,0.4076,0.4083,0.4096,0.4114,0.4119,0.4138,0.416,0.4172,0.4178,0.419,0.4185,0.4184,0.4182,0.4179,0.4225,0.418,0.4181,0.4181,0.4181,0.4181,0,0.3952,0.3966,0.3972,0.3988,0.3994,0.4016,0.4031,0.4034,0.4039,0.4055,0.4063,0.4073,0.4083,0.4108,0.412,0.4121,0.4131,0.4123,0.4123,0.4126,0.4167,0.4168,0.4114,0.4114,0.4114,0.4114,0.4114,0.4114,0.392,0.3916,0.3932,0.3936,0.3951,0.3957,0.3964,0.3975,0.3988,0.3998,0.4007,0.4023,0.4043,0.4058,0.4069,0.4076,0.4079,0.4068,0.4078,0.4116,0.4122,0.4128,0.413,0.4068,0.4068,0.4036,0.4036,0.4036]},{"header":{"parameterUnit":"m.s-1","parameterCategory":1,"la1":30.2991,"la2":30.254,"lo1":-89.0895,"lo2":-89.0444,"dy":0.0017,"dx":0.0017,"nx":28,"ny":28,"refTime":"2023-10-28T21:00:00:Z","depth":0,"parameterNumber":3,"parameterNumberName":"V-component_of_WINDS"},"data":[0,0,0,0,0,0,0,0,0,0,0,0,0,0,0,0,0,0,0,0,0,0,0,0,0,0,0,0,0,0,0,0,0,0,0,0,0,0,0,0,0,0,0,0,0,0,0,0,0,0,0,0,0,0,0,0,0,0,-3.4121,-3.412,0,-3.3964,-3.3962,-3.396,-3.3958,-3.396,-3.3962,-3.3964,-3.3788,-3.3782,-3.3776,0,0,0,0,0,0,0,0,0,0,0,0,0,-3.4407,-3.4402,-3.4121,-3.4119,-3.4117,-3.3964,-3.3962,-3.396,-3.3957,-3.396,-3.3962,-3.3964,-3.3791,-3.3783,-3.3775,0,0,0,0,0,0,0,0,0,0,0,0,0,-3.427,-3.44,-3.4122,-3.4098,-3.4094,-3.3965,-3.3962,-3.3959,-3.3957,-3.396,-3.3963,-3.3966,-3.3793,-3.3784,-3.3774,-3.3653,0,0,-3.3744,-3.374,0,0,0,0,0,0,0,0,-3.4277,-3.4259,-3.4103,-3.4099,-3.4095,-3.3984,-3.3999,-3.3856,-3.3956,-3.4008,-3.3964,-3.3967,-3.385,-3.3836,-3.3799,-3.3645,-3.3638,-3.3743,-3.3737,-3.3733,-3.373,0,0,0,0,0,0,0,-3.4287,-3.4266,-3.4059,-3.4101,-3.4096,-3.4091,-3.4075,-3.3972,-3.3914,-3.4004,-3.4004,-3.3986,-3.3848,-3.3809,-3.3795,-3.3635,-3.3743,-3.3735,-3.3729,-3.3725,-3.3374,-3.337,0,0,0,0,0,0,-3.4303,-3.4274,-3.4064,-3.4054,-3.4196,-3.4084,-3.4066,-3.4016,-3.3915,-3.3903,-3.3983,-3.3986,-3.3824,-3.3807,-3.3789,-3.3641,-3.3733,-3.3724,-3.3718,-3.3377,-3.3373,-3.3369,0,0,0,0,0,0,-3.4309,-3.4284,-3.407,-3.4164,-3.4136,-3.4076,-3.402,-3.4012,-3.3972,-3.39,-3.3888,-3.3955,-3.3826,-3.3803,-3.3688,-3.3635,-3.3719,-3.3711,-3.3381,-3.3376,-3.3371,-3.3344,0,0,0,0,0,0,-3.4317,-3.4287,-3.4243,-3.4163,-3.4131,-3.3975,-3.4017,-3.4006,-3.3957,-3.3959,-3.3869,-3.3857,-3.3826,-3.3703,-3.3678,-3.3623,-3.3703,-3.3386,-3.3379,-3.3373,-3.335,-3.3339,-3.333,0,0,0,0,0,-3.4328,-3.4238,-3.4241,-3.4215,-3.4076,-3.3972,-3.3954,-3.3924,-3.3953,-3.3906,-3.386,-3.386,-3.3645,-3.3691,-3.3664,-3.3604,-3.3389,-3.3381,-3.3373,-3.3354,-3.3341,-3.333,0,0,0,0,0,0,-3.4308,-3.4227,-3.4229,-3.4112,-3.405,-3.3972,-3.3913,-3.3911,-3.3835,-3.384,-3.3802,-3.3782,-3.3668,-3.3624,-3.3677,-3.3482,-3.352,-3.3506,-3.3515,-3.3502,-3.3492,-3.3504,-3.3695,0,0,0,0,0,-3.4291,-3.4218,-3.415,-3.4052,-3.4022,-3.3973,-3.3927,-3.391,-3.3842,-3.3814,-3.3759,-3.3689,-3.3606,-3.3552,-3.3471,-3.3344,-3.3323,-3.329,-3.328,-3.3272,-3.326,-3.3189,-3.3173,-3.3344,-3.3344,-3.3344,0,0,-3.4252,-3.42,-3.4155,-3.4047,-3.3997,-3.3919,-3.395,-3.3865,-3.3806,-3.3799,-3.3689,-3.3647,-3.3566,-3.3445,-3.3389,-3.3405,-3.3209,-3.3262,-3.3257,-3.3248,-3.318,-3.3163,-3.3149,-3.3339,-3.334,-3.334,0,0,-3.4144,-3.4097,-3.4012,-3.3962,-3.3888,-3.3857,-3.3836,-3.376,-3.3733,-3.3623,-3.3617,-3.3543,-3.3401,-3.3344,-3.3297,-3.3169,-3.3166,-3.3144,-3.309,-3.3022,-3.3008,-3.2996,-3.295,-3.2934,-3.3132,-3.3132,-3.3132,0,-3.4104,-3.399,-3.3967,-3.3883,-3.3835,-3.3832,-3.3743,-3.3695,-3.3596,-3.3561,-3.3583,-3.3406,-3.3351,-3.3217,-3.3186,-3.3148,-3.3121,-3.3153,-3.3013,-3.3001,-3.2989,-3.2944,-3.2927,-3.313,-3.313,-3.313,-3.3131,0,-3.3945,-3.3866,-3.3806,-3.3716,-3.3662,-3.3575,-3.3536,-3.3483,-3.3471,-3.3437,-3.3324,-3.3259,-3.3166,-3.3133,-3.3118,-3.2996,-3.3009,-3.3022,-3.3059,-3.2971,-3.2928,-3.2911,-3.3127,-3.3128,-3.3128,-3.3129,0,0,-3.3816,-3.3719,-3.3696,-3.3656,-3.3575,-3.3512,-3.3425,-3.3339,-3.3293,-3.3225,-3.315,-3.3031,-3.3044,-3.299,-3.2969,-3.291,-3.2812,-3.293,-3.2927,-3.2909,-3.2672,-3.2661,-3.2642,-3.2811,-3.2807,-3.2805,-3.2678,0,-3.3697,-3.3549,-3.3526,-3.3393,-3.3319,-3.3316,-3.324,-3.318,-3.3146,-3.3074,-3.3034,-3.2951,-3.2975,-3.2943,-3.2884,-3.2837,-3.2763,-3.2846,-3.2736,-3.2732,-3.2755,-3.262,-3.2608,-3.2492,-3.2661,-3.2659,-3.2656,0,-3.3539,-3.3473,-3.3334,-3.3266,-3.3233,-3.3166,-3.3086,-3.3019,-3.295,-3.2929,-3.2872,-3.2859,-3.2765,-3.2808,-3.2677,-3.2733,-3.2687,-3.2657,-3.2652,-3.2639,-3.2688,-3.2601,-3.2454,-3.2436,-3.263,-3.2632,-3.2634,0,-3.3458,-3.3334,-3.3235,-3.3201,-3.3118,-3.3071,-3.3033,-3.2968,-3.2918,-3.2847,-3.2814,-3.273,-3.2684,-3.2618,-3.2582,-3.2617,-3.2452,-3.2492,-3.2429,-3.243,-3.2392,-3.2395,-3.2235,-3.2366,-3.2366,-3.2366,-3.2367,0,-3.3326,-3.3241,-3.3198,-3.3137,-3.3041,-3.3015,-3.2919,-3.2882,-3.2824,-3.2753,-3.2744,-3.2676,-3.2634,-3.2559,-3.253,-3.2425,-3.2404,-3.2381,-3.2374,-3.2381,-3.2384,-3.2349,-3.2355,-3.2362,-3.2363,-3.2364,-3.2365,0,-3.3218,-3.3186,-3.3079,-3.3011,-3.2992,-3.2924,-3.2864,-3.2803,-3.2771,-3.2681,-3.2658,-3.2605,-3.2517,-3.2475,-3.2364,-3.2344,-3.2225,-3.2224,-3.225,-3.2247,-3.2185,-3.2191,-3.1995,-3.1967,-3.2119,-3.2117,-3.2116,0,-3.3136,-3.3072,-3.2999,-3.2954,-3.2917,-3.2842,-3.2793,-3.2765,-3.2713,-3.2631,-3.2579,-3.2492,-3.2421,-3.228,-3.2228,-3.2143,-3.2139,-3.2076,-3.2125,-3.2135,-3.2136,-3.214,-3.2132,-3.2066,-3.2064,-3.2063,-3.2062,0,-3.2993,-3.2982,-3.2914,-3.284,-3.2783,-3.2723,-3.2663,-3.2625,-3.2586,-3.2528,-3.2441,-3.2386,-3.2276,-3.2189,-3.2101,-3.2057,-3.2051,-3.2048,-3.2029,-3.2034,-3.2051,-3.204,-3.2224,-3.2052,-3.2053,-3.2054,-3.2054,-3.2055,-3.2894,-3.2837,-3.2778,-3.2703,-3.2656,-3.2601,-3.2542,-3.2504,-3.2432,-3.2344,-3.2331,-3.2237,-3.2169,-3.2052,-3.2006,-3.193,-3.1944,-3.1916,-3.1908,-3.1901,-3.1898,-3.2066,-3.1913,-3.1914,-3.1914,-3.1914,-3.1914,0,-3.275,-3.2713,-3.2645,-3.2564,-3.2504,-3.2512,-3.2446,-3.2394,-3.2314,-3.2254,-3.2186,-3.2085,-3.2001,-3.1945,-3.1859,-3.1808,-3.1803,-3.1786,-3.1788,-3.1778,-3.189,-3.1916,-3.1792,-3.1792,-3.1792,-3.1792,-3.1792,-3.1792,-3.2668,-3.2572,-3.2554,-3.2433,-3.2396,-3.2309,-3.2271,-3.2219,-3.2171,-3.2061,-3.1994,-3.196,-3.19,-3.181,-3.1732,-3.1717,-3.1684,-3.1667,-3.1652,-3.1757,-3.177,-3.1782,-3.1806,-3.166,-3.166,-3.1545,-3.1544,-3.1544]}]]